Tracking 19193 objects as of 24-Jun-2018
HD Live streaming from Space Station
objects crossing your sky now

FENGYUN 1C DEB

Track FENGYUN 1C DEB now!
10-day predictions


NORAD ID: 30663
Int'l Code: 1999-025APV
Perigee: 701.3 km
Apogee: 1,776.6 km
Inclination: 99.3 °
Period: 110.1 minutes
Semi major axis: 7609 km
RCS: 0.0057 m2 (small)
Launch date: May 10, 1999
Source: People's Republic of China (PRC)
Launch site: Taiyaun Space Center, China (TSC)

Note: This is SATELLITE DEBRIS
aabbcc
Your satellite tracking list
Your tracking list is empty




NASA's NSSDC Master Catalog

Two Line Element Set (TLE):
1 30663U 99025APV 18174.52412013 -.00000042 +00000-0 -88697-5 0  9993
2 30663 099.2812 020.4090 0706539 139.0212 226.6266 13.07768047532658
Source of the keplerian elements: AFSPC